When you browse on this site, cookies collect data to enhance your experience and personalize the content and advertising you see.
Visit our Privacy Policy to learn more. By continuing to use the site, you agree to this use of cookies and data.
  • In Norway
  • List of Countries
  • For 7 days
  • Water Temperature
  • Satellite Maps
  • Weather Map
  • Weather Widgets
  • user-avatar
    Login

    Hourly Weather Zapalow

    Today, 23 May, Thursday

    Time Temperature Precipitation Wind Pressure Humidity
    00:00 +12°C° 0 mm 1 mps 737 mmHg 94%
    01:00 +12°C° 0 mm 1 mps 737 mmHg 95%
    02:00 +11°C° 0 mm 1 mps 737 mmHg 95%
    03:00 +11°C° 0 mm 1 mps 737 mmHg 95%
    04:00 +11°C° 0 mm 1 mps 738 mmHg 95%
    05:00 +10°C° 0 mm 0 mps 738 mmHg 95%
    06:00 +12°C° 0 mm 1 mps 738 mmHg 92%
    07:00 +14°C° 0 mm 1 mps 738 mmHg 89%
    08:00 +15°C° 0 mm 1 mps 739 mmHg 86%
    09:00 +16°C° 0.7 mm 1 mps 739 mmHg 83%
    10:00 +18°C° 0.7 mm 1 mps 739 mmHg 81%
    11:00 +18°C° 0.7 mm 2 mps 739 mmHg 78%
    12:00 +19°C° 1.2 mm 2 mps 739 mmHg 77%
    13:00 +19°C° 1.2 mm 2 mps 739 mmHg 76%
    14:00 +20°C° 1.2 mm 2 mps 739 mmHg 75%
    15:00 +20°C° 0.5 mm 2 mps 739 mmHg 76%
    16:00 +20°C° 0.5 mm 3 mps 739 mmHg 77%
    17:00 +20°C° 0.5 mm 3 mps 739 mmHg 77%
    18:00 +18°C° 0.3 mm 3 mps 739 mmHg 83%
    19:00 +17°C° 0.3 mm 3 mps 739 mmHg 88%
    20:00 +16°C° 0.3 mm 3 mps 739 mmHg 93%
    21:00 +14°C° 0.5 mm 4 mps 739 mmHg 94%
    22:00 +14°C° 0.5 mm 4 mps 740 mmHg 96%
    23:00 +13°C° 0.5 mm 4 mps 740 mmHg 97%

    Tomorrow, 24 May, Friday

    Time Temperature Precipitation Wind Pressure Humidity
    00:00 +13°C° 0.4 mm 4 mps 740 mmHg 97%
    01:00 +13°C° 0.4 mm 3 mps 740 mmHg 97%
    02:00 +13°C° 0.4 mm 3 mps 740 mmHg 97%
    03:00 +13°C° 0.3 mm 3 mps 740 mmHg 97%
    04:00 +13°C° 0.3 mm 3 mps 740 mmHg 97%
    05:00 +13°C° 0.3 mm 3 mps 740 mmHg 97%
    06:00 +13°C° 0.1 mm 3 mps 740 mmHg 96%
    07:00 +14°C° 0.1 mm 4 mps 740 mmHg 95%
    08:00 +14°C° 0.1 mm 4 mps 740 mmHg 94%
    09:00 +14°C° 0.1 mm 4 mps 740 mmHg 94%
    10:00 +14°C° 0.1 mm 4 mps 740 mmHg 93%
    11:00 +14°C° 0.1 mm 4 mps 741 mmHg 92%
    12:00 +15°C° 0.1 mm 4 mps 740 mmHg 89%
    13:00 +17°C° 0.1 mm 4 mps 740 mmHg 86%
    14:00 +18°C° 0.1 mm 4 mps 740 mmHg 82%
    15:00 +18°C° 0.2 mm 4 mps 740 mmHg 82%
    16:00 +18°C° 0.2 mm 4 mps 740 mmHg 82%
    17:00 +18°C° 0.2 mm 3 mps 739 mmHg 82%
    18:00 +17°C° 0.3 mm 3 mps 739 mmHg 85%
    19:00 +17°C° 0.3 mm 2 mps 739 mmHg 88%
    20:00 +16°C° 0.3 mm 2 mps 739 mmHg 91%
    21:00 +15°C° 0.4 mm 2 mps 739 mmHg 92%
    22:00 +15°C° 0.4 mm 2 mps 740 mmHg 94%
    23:00 +14°C° 0.4 mm 2 mps 740 mmHg 95%

    Day after tomorrow, 25 May, Saturday

    Time Temperature Precipitation Wind Pressure Humidity
    00:00 +14°C° 0 mm 2 mps 740 mmHg 95%
    01:00 +13°C° 0 mm 2 mps 739 mmHg 95%
    02:00 +13°C° 0 mm 2 mps 739 mmHg 96%
    03:00 +12°C° 0 mm 2 mps 739 mmHg 96%
    04:00 +12°C° 0 mm 2 mps 739 mmHg 96%
    05:00 +12°C° 0 mm 2 mps 740 mmHg 96%
    06:00 +12°C° 0 mm 3 mps 740 mmHg 93%
    07:00 +13°C° 0 mm 3 mps 740 mmHg 90%
    08:00 +16°C° 0 mm 3 mps 740 mmHg 87%
    09:00 +17°C° 0.1 mm 3 mps 740 mmHg 81%
    10:00 +18°C° 0.1 mm 3 mps 740 mmHg 75%
    11:00 +20°C° 0.1 mm 3 mps 740 mmHg 69%
    12:00 +20°C° 0.2 mm 4 mps 740 mmHg 67%
    13:00 +21°C° 0.2 mm 4 mps 740 mmHg 64%
    14:00 +22°C° 0.2 mm 5 mps 740 mmHg 61%
    15:00 +21°C° 0 mm 5 mps 740 mmHg 62%
    16:00 +21°C° 0 mm 4 mps 739 mmHg 63%
    17:00 +21°C° 0 mm 4 mps 739 mmHg 64%
    18:00 +20°C° 0.1 mm 3 mps 739 mmHg 70%
    19:00 +18°C° 0.1 mm 3 mps 739 mmHg 77%
    20:00 +17°C° 0.1 mm 3 mps 739 mmHg 84%
    21:00 +16°C° 0 mm 2 mps 740 mmHg 87%
    22:00 +15°C° 0 mm 2 mps 740 mmHg 89%
    23:00 +14°C° 0 mm 2 mps 740 mmHg 92%

    26 May, Sunday

    Time Temperature Precipitation Wind Pressure Humidity
    00:00 +14°C° 0 mm 2 mps 740 mmHg 93%
    01:00 +13°C° 0 mm 2 mps 740 mmHg 93%
    02:00 +13°C° 0 mm 2 mps 740 mmHg 94%
    03:00 +12°C° 0 mm 2 mps 740 mmHg 94%
    04:00 +12°C° 0 mm 2 mps 740 mmHg 94%
    05:00 +12°C° 0 mm 2 mps 740 mmHg 93%
    06:00 +14°C° 0 mm 2 mps 740 mmHg 90%
    07:00 +15°C° 0 mm 2 mps 740 mmHg 86%
    08:00 +16°C° 0 mm 3 mps 740 mmHg 82%
    09:00 +17°C° 0.2 mm 3 mps 740 mmHg 80%
    10:00 +18°C° 0.2 mm 4 mps 740 mmHg 77%
    11:00 +19°C° 0.2 mm 5 mps 739 mmHg 74%
    12:00 +19°C° 0.3 mm 6 mps 739 mmHg 73%
    13:00 +20°C° 0.3 mm 6 mps 739 mmHg 71%
    14:00 +20°C° 0.3 mm 6 mps 739 mmHg 69%
    15:00 +19°C° 0.3 mm 6 mps 739 mmHg 69%
    16:00 +19°C° 0.3 mm 6 mps 739 mmHg 68%
    17:00 +17°C° 0.3 mm 5 mps 739 mmHg 68%
    18:00 +17°C° 0 mm 4 mps 739 mmHg 71%
    19:00 +14°C° 0 mm 3 mps 740 mmHg 75%
    20:00 +13°C° 0 mm 2 mps 740 mmHg 78%
    21:00 +13°C° 0 mm 2 mps 740 mmHg 80%
    22:00 +12°C° 0 mm 2 mps 741 mmHg 82%
    23:00 +10°C° 0 mm 2 mps 741 mmHg 84%

    27 May, Monday

    Time Temperature Precipitation Wind Pressure Humidity
    00:00 +9°C° 0 mm 2 mps 741 mmHg 87%
    01:00 +9°C° 0 mm 2 mps 741 mmHg 89%
    02:00 +9°C° 0 mm 2 mps 741 mmHg 92%
    03:00 +8°C° 0 mm 2 mps 742 mmHg 92%
    04:00 +9°C° 0 mm 1 mps 742 mmHg 92%
    05:00 +9°C° 0 mm 1 mps 742 mmHg 93%
    06:00 +11°C° 0 mm 1 mps 742 mmHg 87%
    07:00 +13°C° 0 mm 1 mps 742 mmHg 81%
    08:00 +14°C° 0 mm 1 mps 742 mmHg 75%
    09:00 +16°C° 0 mm 2 mps 742 mmHg 70%
    10:00 +17°C° 0 mm 2 mps 742 mmHg 65%
    11:00 +19°C° 0 mm 2 mps 742 mmHg 61%
    12:00 +20°C° 0 mm 2 mps 741 mmHg 59%
    13:00 +20°C° 0 mm 2 mps 741 mmHg 57%
    14:00 +21°C° 0 mm 2 mps 741 mmHg 56%
    15:00 +21°C° 0 mm 2 mps 741 mmHg 58%
    16:00 +21°C° 0 mm 2 mps 740 mmHg 61%
    17:00 +22°C° 0 mm 3 mps 740 mmHg 64%
    18:00 +20°C° 0 mm 3 mps 740 mmHg 72%
    19:00 +19°C° 0 mm 3 mps 739 mmHg 80%
    20:00 +18°C° 0 mm 3 mps 739 mmHg 89%
    21:00 +18°C° 0 mm 3 mps 739 mmHg 91%
    22:00 +17°C° 0 mm 3 mps 739 mmHg 93%
    23:00 +17°C° 0 mm 3 mps 738 mmHg 96%

    28 May, Tuesday

    Time Temperature Precipitation Wind Pressure Humidity
    00:00 +17°C° 0 mm 2 mps 738 mmHg 95%
    01:00 +17°C° 0 mm 2 mps 737 mmHg 95%
    02:00 +16°C° 0 mm 2 mps 737 mmHg 94%
    03:00 +16°C° 0.1 mm 2 mps 737 mmHg 94%
    04:00 +16°C° 0.1 mm 2 mps 736 mmHg 93%
    05:00 +16°C° 0.1 mm 2 mps 736 mmHg 93%
    06:00 +17°C° 0.4 mm 2 mps 736 mmHg 91%
    07:00 +17°C° 0.4 mm 3 mps 735 mmHg 90%
    08:00 +18°C° 0.4 mm 3 mps 735 mmHg 88%
    09:00 +20°C° 0.6 mm 4 mps 735 mmHg 84%
    10:00 +21°C° 0.6 mm 4 mps 735 mmHg 79%
    11:00 +22°C° 0.6 mm 5 mps 735 mmHg 75%
    12:00 +23°C° 0.6 mm 5 mps 735 mmHg 71%
    13:00 +25°C° 0.6 mm 5 mps 734 mmHg 68%
    14:00 +26°C° 0.6 mm 5 mps 734 mmHg 65%
    15:00 +25°C° 1.4 mm 4 mps 734 mmHg 68%
    16:00 +23°C° 1.4 mm 4 mps 734 mmHg 71%
    17:00 +24°C° 1.4 mm 3 mps 734 mmHg 74%
    18:00 +21°C° 0.8 mm 2 mps 735 mmHg 78%
    19:00 +20°C° 0.8 mm 2 mps 735 mmHg 81%
    20:00 +20°C° 0.8 mm 1 mps 735 mmHg 84%
    21:00 +19°C° 0 mm 1 mps 735 mmHg 86%
    22:00 +19°C° 0 mm 1 mps 735 mmHg 88%
    23:00 +18°C° 0 mm 1 mps 736 mmHg 89%
    Show more